[[{"header":{"parameterUnit":"m.s-1","parameterCategory":1,"la1":30.2991,"la2":30.254,"lo1":-89.0895,"lo2":-89.0444,"dy":0.0017,"dx":0.0017,"nx":28,"ny":28,"refTime":"2024-12-01T09:00:00:Z","depth":0,"parameterNumber":2,"parameterNumberName":"U-component_of_WINDS"},"data":[0,0,0,0,0,0,0,0,0,0,0,0,0,0,0,0,0,0,0,0,0,0,0,0,0,0,0,0,0,0,0,0,0,0,0,0,0,0,0,0,0,0,0,0,0,0,0,0,0,0,0,0,0,0,0,0,0,0,1.1056,1.1056,0,1.1036,1.1035,1.1035,1.0986,1.0985,1.0984,1.0983,1.0961,1.0962,1.0962,0,0,0,0,0,0,0,0,0,0,0,0,0,1.1053,1.1054,1.1056,1.1056,1.1056,1.1036,1.1035,1.1035,1.0986,1.0985,1.0984,1.0982,1.0961,1.0962,1.0962,0,0,0,0,0,0,0,0,0,0,0,0,0,1.1046,1.1054,1.1056,1.1029,1.1026,1.1036,1.1035,1.1035,1.0986,1.0985,1.0983,1.0982,1.0961,1.0962,1.0962,1.0997,0,0,1.0964,1.0964,0,0,0,0,0,0,0,0,1.1046,1.1046,1.1033,1.1031,1.1028,1.1012,1.1026,1.1022,1.0987,1.1001,1.0983,1.0981,1.0979,1.0978,1.0978,1.0996,1.0995,1.0964,1.0965,1.0965,1.0965,0,0,0,0,0,0,0,1.1047,1.1047,1.1048,1.1033,1.103,1.1018,1.1015,1.1025,1.0999,1.1,1.0996,1.0995,1.0978,1.0977,1.0977,1.0995,1.0964,1.0965,1.0965,1.0965,1.1041,1.1043,0,0,0,0,0,0,1.1051,1.1047,1.1049,1.1047,1.1033,1.1019,1.1016,1.1018,1.0999,1.0995,1.0996,1.0992,1.0977,1.0976,1.0976,1.1016,1.0965,1.0965,1.0966,1.1039,1.1041,1.1043,0,0,0,0,0,0,1.1051,1.1052,1.1049,1.1046,1.1045,1.1021,1.1024,1.1019,1.1018,1.0996,1.0991,1.1001,1.0976,1.0975,1.0992,1.1014,1.0966,1.0966,1.1037,1.104,1.1042,1.1095,0,0,0,0,0,0,1.1052,1.1052,1.1065,1.1047,1.1045,1.1066,1.1025,1.1019,1.102,1.1015,1.0999,1.0995,1.0975,1.0992,1.0993,1.1014,1.0967,1.1035,1.1039,1.1042,1.1092,1.1099,1.1106,0,0,0,0,0,1.1052,1.108,1.1066,1.1066,1.1061,1.1067,1.1066,1.1043,1.1022,1.1034,1.102,1.0995,1.1012,1.0994,1.0995,1.1017,1.1034,1.1038,1.1041,1.1088,1.1098,1.1106,0,0,0,0,0,0,1.1101,1.1077,1.1061,1.1084,1.1078,1.1059,1.1074,1.1053,1.1053,1.1048,1.1019,1.1016,1.1037,1.1028,1.1009,1.105,1.1019,1.1023,1.1054,1.1063,1.1071,1.1072,1.0967,0,0,0,0,0,1.1114,1.1122,1.1101,1.1124,1.1121,1.1099,1.11,1.1083,1.1075,1.1072,1.1059,1.1053,1.1056,1.1059,1.1062,1.109,1.1087,1.1106,1.1113,1.112,1.1123,1.1139,1.1148,1.1056,1.1056,1.1055,0,0,1.1142,1.113,1.1137,1.1133,1.1126,1.1135,1.1096,1.1107,1.1113,1.1074,1.1089,1.108,1.107,1.1094,1.1104,1.1088,1.1148,1.1124,1.1129,1.113,1.1144,1.1153,1.116,1.1058,1.1058,1.1057,0,0,1.1198,1.1189,1.1208,1.1202,1.1193,1.1177,1.1182,1.1166,1.1158,1.1174,1.1145,1.1152,1.1159,1.1154,1.1152,1.1208,1.1186,1.121,1.1247,1.1263,1.127,1.1277,1.1297,1.1305,1.1214,1.1214,1.1214,0,1.1233,1.1245,1.122,1.1233,1.1232,1.1198,1.1217,1.1213,1.1204,1.1205,1.1187,1.1196,1.1188,1.121,1.1224,1.1223,1.1228,1.1211,1.1271,1.1277,1.1283,1.1302,1.131,1.1217,1.1216,1.1216,1.1216,0,1.129,1.1299,1.1315,1.1309,1.131,1.1326,1.1304,1.1308,1.1291,1.1278,1.1295,1.1284,1.1283,1.1288,1.127,1.1308,1.1298,1.1277,1.1245,1.1295,1.1313,1.132,1.1221,1.122,1.1219,1.1218,0,0,1.1374,1.1355,1.1361,1.1359,1.1346,1.1353,1.1368,1.1368,1.1373,1.1369,1.1381,1.1388,1.1368,1.1367,1.1349,1.1363,1.1409,1.1339,1.1339,1.1353,1.145,1.1467,1.1476,1.1394,1.1395,1.1396,1.1451,0,1.1427,1.1451,1.1429,1.1458,1.1466,1.1434,1.1447,1.1442,1.143,1.1436,1.1423,1.1429,1.1402,1.1401,1.1414,1.1401,1.1428,1.1396,1.1405,1.1406,1.1408,1.1485,1.1502,1.1554,1.1458,1.1459,1.146,0,1.1491,1.149,1.152,1.1507,1.1509,1.1521,1.1521,1.1526,1.152,1.1511,1.151,1.1489,1.1503,1.1473,1.1492,1.1471,1.1474,1.1468,1.147,1.1469,1.1436,1.1487,1.157,1.1578,1.147,1.1469,1.1469,0,1.155,1.1557,1.1575,1.1574,1.1559,1.1569,1.1563,1.1555,1.1557,1.1557,1.1558,1.1559,1.156,1.1561,1.1542,1.1521,1.1564,1.1532,1.1557,1.1558,1.1567,1.1566,1.1652,1.1569,1.1569,1.1569,1.1568,0,1.161,1.163,1.1602,1.1613,1.1634,1.161,1.1632,1.1623,1.1616,1.1626,1.1599,1.1608,1.1582,1.1589,1.1573,1.1592,1.1593,1.1586,1.1582,1.1588,1.1589,1.1589,1.1585,1.1571,1.157,1.157,1.1569,0,1.168,1.1662,1.168,1.1665,1.1662,1.1679,1.1666,1.1676,1.1664,1.1676,1.1678,1.1658,1.1665,1.1646,1.165,1.164,1.1667,1.1657,1.167,1.1667,1.1693,1.1691,1.1781,1.1792,1.1703,1.1703,1.1704,0,1.1719,1.1734,1.1721,1.1726,1.1722,1.1729,1.1732,1.1709,1.1713,1.1707,1.1718,1.1723,1.1726,1.1739,1.1725,1.1728,1.1718,1.1749,1.1718,1.1725,1.1718,1.1718,1.1719,1.1755,1.1757,1.1757,1.1758,0,1.1792,1.1783,1.1787,1.1789,1.1793,1.1793,1.1792,1.1797,1.1773,1.1779,1.1786,1.1788,1.1793,1.1798,1.1798,1.1793,1.1772,1.1768,1.1774,1.1781,1.1788,1.1785,1.1687,1.1766,1.1765,1.1765,1.1764,1.1764,1.1847,1.1859,1.1852,1.1859,1.1855,1.1855,1.1864,1.1854,1.1859,1.1861,1.1848,1.1858,1.1852,1.1851,1.1848,1.1856,1.1841,1.185,1.1852,1.1855,1.1859,1.1787,1.1856,1.1856,1.1855,1.1855,1.1855,0,1.1919,1.1913,1.1919,1.1919,1.1924,1.1905,1.1902,1.1908,1.1917,1.1914,1.1918,1.1927,1.1932,1.192,1.1923,1.1932,1.1923,1.1934,1.1933,1.1932,1.1872,1.1866,1.1942,1.1942,1.1942,1.1942,1.1942,1.1942,1.1956,1.1975,1.1966,1.1983,1.1978,1.1988,1.1988,1.1988,1.1985,1.1997,1.2002,1.1994,1.1987,1.199,1.1995,1.1991,1.1994,1.2008,1.2001,1.1945,1.1936,1.1928,1.1923,1.2009,1.2009,1.2061,1.2061,1.2062]},{"header":{"parameterUnit":"m.s-1","parameterCategory":1,"la1":30.2991,"la2":30.254,"lo1":-89.0895,"lo2":-89.0444,"dy":0.0017,"dx":0.0017,"nx":28,"ny":28,"refTime":"2024-12-01T09:00:00:Z","depth":0,"parameterNumber":3,"parameterNumberName":"V-component_of_WINDS"},"data":[0,0,0,0,0,0,0,0,0,0,0,0,0,0,0,0,0,0,0,0,0,0,0,0,0,0,0,0,0,0,0,0,0,0,0,0,0,0,0,0,0,0,0,0,0,0,0,0,0,0,0,0,0,0,0,0,0,0,-2.7777,-2.7778,0,-2.7886,-2.7888,-2.7889,-2.7898,-2.7897,-2.7896,-2.7895,-2.8004,-2.8008,-2.8012,0,0,0,0,0,0,0,0,0,0,0,0,0,-2.7572,-2.7575,-2.7776,-2.7778,-2.7779,-2.7886,-2.7888,-2.7889,-2.7898,-2.7897,-2.7896,-2.7894,-2.8003,-2.8007,-2.8012,0,0,0,0,0,0,0,0,0,0,0,0,0,-2.7669,-2.7576,-2.7776,-2.7797,-2.78,-2.7886,-2.7888,-2.789,-2.7899,-2.7897,-2.7895,-2.7894,-2.8001,-2.8007,-2.8013,-2.8085,0,0,-2.8031,-2.8034,0,0,0,0,0,0,0,0,-2.7663,-2.7676,-2.7792,-2.7796,-2.7799,-2.7877,-2.7855,-2.7955,-2.7899,-2.7861,-2.7895,-2.7893,-2.7963,-2.7972,-2.7996,-2.809,-2.8095,-2.8032,-2.8035,-2.8038,-2.8039,0,0,0,0,0,0,0,-2.7656,-2.7672,-2.782,-2.7794,-2.7798,-2.78,-2.7811,-2.7874,-2.792,-2.7864,-2.7865,-2.7878,-2.7964,-2.799,-2.7999,-2.8096,-2.8031,-2.8037,-2.804,-2.8043,-2.8253,-2.8255,0,0,0,0,0,0,-2.7646,-2.7666,-2.7816,-2.7823,-2.7726,-2.7805,-2.7818,-2.7854,-2.792,-2.7928,-2.788,-2.7878,-2.7981,-2.7992,-2.8003,-2.8091,-2.8038,-2.8043,-2.8047,-2.8251,-2.8254,-2.8256,0,0,0,0,0,0,-2.7642,-2.766,-2.7812,-2.7745,-2.7764,-2.781,-2.785,-2.7857,-2.7883,-2.7931,-2.7939,-2.7898,-2.798,-2.7994,-2.8064,-2.8094,-2.8046,-2.8051,-2.8249,-2.8252,-2.8255,-2.8267,0,0,0,0,0,0,-2.7636,-2.7658,-2.7687,-2.7746,-2.7768,-2.7873,-2.7852,-2.786,-2.7894,-2.7893,-2.7951,-2.7959,-2.798,-2.8055,-2.807,-2.8102,-2.8056,-2.8247,-2.825,-2.8254,-2.8264,-2.827,-2.8275,0,0,0,0,0,-2.7629,-2.7685,-2.7688,-2.7706,-2.7805,-2.7875,-2.7887,-2.7911,-2.7896,-2.7925,-2.7956,-2.7957,-2.8089,-2.8062,-2.8079,-2.8113,-2.8245,-2.8249,-2.8254,-2.8262,-2.8269,-2.8275,0,0,0,0,0,0,-2.7627,-2.7693,-2.7697,-2.7775,-2.7819,-2.7876,-2.7913,-2.7918,-2.7967,-2.7964,-2.7991,-2.8004,-2.8073,-2.81,-2.807,-2.8186,-2.8165,-2.8173,-2.8165,-2.8173,-2.8178,-2.8169,-2.8061,0,0,0,0,0,-2.7636,-2.7689,-2.7743,-2.7806,-2.7828,-2.7867,-2.7898,-2.7913,-2.7959,-2.7978,-2.8014,-2.8058,-2.811,-2.8143,-2.8193,-2.8269,-2.8281,-2.83,-2.8306,-2.831,-2.8316,-2.8357,-2.8366,-2.8271,-2.8271,-2.8271,0,0,-2.7655,-2.7697,-2.7728,-2.7807,-2.7843,-2.7895,-2.7882,-2.7938,-2.7977,-2.7986,-2.8054,-2.8083,-2.8134,-2.8207,-2.824,-2.8231,-2.8345,-2.8316,-2.8319,-2.8323,-2.8363,-2.8372,-2.838,-2.8274,-2.8273,-2.8273,0,0,-2.7715,-2.7753,-2.7809,-2.7846,-2.7901,-2.7927,-2.794,-2.7997,-2.8016,-2.8086,-2.8093,-2.8139,-2.8228,-2.8263,-2.8293,-2.8367,-2.837,-2.8383,-2.8411,-2.8451,-2.8458,-2.8465,-2.849,-2.8499,-2.8389,-2.8389,-2.8389,0,-2.7731,-2.7811,-2.7837,-2.7893,-2.7927,-2.7939,-2.7995,-2.8029,-2.8098,-2.812,-2.8109,-2.822,-2.8256,-2.8337,-2.8355,-2.8379,-2.8394,-2.8376,-2.8455,-2.8462,-2.8469,-2.8493,-2.8503,-2.839,-2.839,-2.839,-2.839,0,-2.7827,-2.7882,-2.7921,-2.7987,-2.8026,-2.8081,-2.8115,-2.8151,-2.8162,-2.8188,-2.8258,-2.8301,-2.836,-2.8381,-2.8392,-2.8463,-2.8456,-2.845,-2.8429,-2.8479,-2.8502,-2.8511,-2.8392,-2.8392,-2.8391,-2.8391,0,0,-2.7888,-2.7969,-2.7983,-2.8013,-2.8075,-2.8118,-2.8174,-2.8232,-2.8261,-2.8308,-2.8355,-2.843,-2.8425,-2.8459,-2.8475,-2.851,-2.8564,-2.8499,-2.8501,-2.8509,-2.8643,-2.8646,-2.8656,-2.8567,-2.8569,-2.857,-2.8638,0,-2.7954,-2.8055,-2.8081,-2.8166,-2.8217,-2.8229,-2.8278,-2.8321,-2.8347,-2.8393,-2.8421,-2.8473,-2.8464,-2.8484,-2.8519,-2.855,-2.8591,-2.8546,-2.8609,-2.8611,-2.8594,-2.8669,-2.8672,-2.8734,-2.8648,-2.8649,-2.8651,0,-2.8044,-2.8094,-2.8185,-2.824,-2.8262,-2.8306,-2.8361,-2.8406,-2.8454,-2.847,-2.8508,-2.8521,-2.8579,-2.8556,-2.8635,-2.8604,-2.8631,-2.865,-2.8653,-2.8659,-2.8632,-2.8675,-2.8755,-2.8764,-2.8665,-2.8664,-2.8663,0,-2.8078,-2.8168,-2.8234,-2.8259,-2.8326,-2.8356,-2.8385,-2.8432,-2.8465,-2.8513,-2.8535,-2.8589,-2.8618,-2.8659,-2.8685,-2.8667,-2.8761,-2.8742,-2.8775,-2.8775,-2.8793,-2.8791,-2.8877,-2.8814,-2.8813,-2.8813,-2.8813,0,-2.8148,-2.8203,-2.825,-2.829,-2.8351,-2.838,-2.844,-2.8469,-2.851,-2.8556,-2.857,-2.8612,-2.8645,-2.8691,-2.8712,-2.8773,-2.8787,-2.88,-2.8805,-2.8798,-2.8796,-2.8815,-2.8811,-2.8816,-2.8815,-2.8815,-2.8814,0,-2.8196,-2.823,-2.8302,-2.8359,-2.8375,-2.8417,-2.8466,-2.8505,-2.8532,-2.8589,-2.8604,-2.8645,-2.87,-2.8731,-2.88,-2.8814,-2.8882,-2.8885,-2.8866,-2.8868,-2.8899,-2.8895,-2.8999,-2.9014,-2.8941,-2.8942,-2.8943,0,-2.8237,-2.828,-2.8342,-2.8374,-2.8404,-2.8455,-2.8489,-2.8519,-2.8554,-2.8613,-2.8644,-2.87,-2.8747,-2.8834,-2.8869,-2.8922,-2.8926,-2.8959,-2.8933,-2.8925,-2.8924,-2.8921,-2.8924,-2.8962,-2.8963,-2.8963,-2.8964,0,-2.8308,-2.8322,-2.8372,-2.8427,-2.8468,-2.8513,-2.8558,-2.8583,-2.862,-2.8658,-2.8715,-2.8751,-2.8822,-2.8877,-2.8933,-2.8961,-2.8968,-2.8972,-2.8982,-2.8975,-2.8961,-2.8967,-2.8876,-2.8969,-2.8968,-2.8968,-2.8968,-2.8967,-2.8353,-2.8391,-2.844,-2.8495,-2.8532,-2.8573,-2.8612,-2.8644,-2.8693,-2.8753,-2.8768,-2.8828,-2.8874,-2.895,-2.898,-2.9026,-2.902,-2.9035,-2.9039,-2.9042,-2.9042,-2.8955,-2.9037,-2.9037,-2.9037,-2.9036,-2.9036,0,-2.8422,-2.8455,-2.8505,-2.8567,-2.861,-2.8615,-2.8664,-2.8699,-2.8752,-2.8795,-2.8841,-2.8906,-2.896,-2.9,-2.9054,-2.9083,-2.9088,-2.9096,-2.9094,-2.91,-2.9045,-2.903,-2.9092,-2.9092,-2.9092,-2.9092,-2.9092,-2.9092,-2.8463,-2.8528,-2.8548,-2.863,-2.8663,-2.8722,-2.875,-2.8787,-2.8822,-2.8895,-2.894,-2.8966,-2.9008,-2.9066,-2.9115,-2.9125,-2.9143,-2.9151,-2.9162,-2.911,-2.9104,-2.9098,-2.9084,-2.9156,-2.9156,-2.9212,-2.9213,-2.9213]}]]